Location: Saluda
(35.2377°N, 82.3468°W)
Time: 19:24:51
(UTC+00:00)

Vanguard 3 - Pass Details

Date: 12 October 2022
Orbit: 509 x 3255 km, 33.3° (Epoch: 01 December)

Event Time Altitude Azimuth Distance (km) Brightness Sun altitude
Rises 08:52:46 0° 214° (SSW) 4,064 - -33.3°
Reaches altitude 10° 08:57:13 10° 194° (SSW) 2,593 - -32.4°
Maximum altitude 09:00:32 15° 159° (SSE) 1,907 - -31.7°
Exits shadow 09:01:24 15° 147° (SSE) 1,866 9.2 -31.6°
Drops below altitude 10° 09:03:14 10° 122° (ESE) 2,019 9.7 -31.2°
Sets 09:06:01 0° 97° (E) 2,732 10.9 -30.6°
